TimeCST,TemperatureF,Dew PointF,Humidity,Sea Level PressureIn,VisibilityMPH,Wind Direction,Wind SpeedMPH,Gust SpeedMPH,PrecipitationIn,Events,Conditions,WindDirDegrees,DateUTC
12:15 AM,33.3,26.8,77,30.36,10.0,ENE,5.8,-,N/A,,Overcast,60,2013-03-08 06:15:00
12:35 AM,33.1,26.6,77,30.37,10.0,ENE,3.5,-,N/A,,Overcast,60,2013-03-08 06:35:00
12:55 AM,32.9,26.8,78,30.37,10.0,ENE,8.1,-,N/A,,Overcast,70,2013-03-08 06:55:00
1:15 AM,32.4,26.4,79,30.37,10.0,ENE,5.8,-,N/A,,Overcast,70,2013-03-08 07:15:00
1:35 AM,32.0,26.4,80,30.37,10.0,East,8.1,-,N/A,,Overcast,80,2013-03-08 07:35:00
1:55 AM,32.0,26.6,80,30.36,10.0,East,4.6,-,N/A,,Overcast,80,2013-03-08 07:55:00
2:15 AM,31.8,26.4,80,30.37,10.0,Calm,Calm,-,N/A,,Overcast,0,2013-03-08 08:15:00
2:35 AM,31.3,26.2,82,30.37,10.0,Calm,Calm,-,N/A,,Overcast,0,2013-03-08 08:35:00
2:55 AM,31.1,26.1,82,30.37,10.0,NE,3.5,-,N/A,,Overcast,50,2013-03-08 08:55:00
3:15 AM,31.1,25.9,81,30.38,10.0,Calm,Calm,-,N/A,,Overcast,0,2013-03-08 09:15:00
3:35 AM,30.7,25.9,82,30.38,10.0,Calm,Calm,-,N/A,,Overcast,0,2013-03-08 09:35:00
3:55 AM,30.2,25.7,83,30.38,10.0,NE,3.5,-,N/A,,Scattered Clouds,40,2013-03-08 09:55:00
4:15 AM,30.2,25.7,83,30.38,10.0,NNE,3.5,-,N/A,,Clear,30,2013-03-08 10:15:00
4:35 AM,29.8,25.5,84,30.38,10.0,North,3.5,-,N/A,,Clear,10,2013-03-08 10:35:00
4:55 AM,28.4,24.8,86,30.39,10.0,Calm,Calm,-,N/A,,Clear,0,2013-03-08 10:55:00
5:15 AM,27.3,24.6,90,30.40,7.0,Calm,Calm,-,N/A,,Clear,0,2013-03-08 11:15:00
5:35 AM,27.3,24.8,90,30.40,10.0,Calm,Calm,-,N/A,,Clear,0,2013-03-08 11:35:00
5:55 AM,27.7,24.6,88,30.41,10.0,Calm,Calm,-,N/A,,Clear,0,2013-03-08 11:55:00
6:15 AM,27.5,24.6,89,30.41,7.0,ENE,4.6,-,N/A,,Clear,60,2013-03-08 12:15:00
6:35 AM,28.9,25.5,87,30.41,7.0,ENE,3.5,-,N/A,,Clear,60,2013-03-08 12:35:00
6:55 AM,30.7,26.1,83,30.41,10.0,ENE,4.6,-,N/A,,Clear,70,2013-03-08 12:55:00
7:15 AM,32.0,26.6,80,30.41,10.0,East,5.8,-,N/A,,Clear,80,2013-03-08 13:15:00
7:35 AM,33.3,27.0,78,30.42,10.0,ENE,3.5,-,N/A,,Clear,60,2013-03-08 13:35:00
7:55 AM,34.7,27.3,74,30.42,10.0,East,5.8,-,N/A,,Clear,80,2013-03-08 13:55:00
8:15 AM,36.1,27.3,70,30.41,10.0,ENE,11.5,18.4,N/A,,Clear,70,2013-03-08 14:15:00
8:35 AM,37.0,27.0,67,30.42,10.0,East,12.7,-,N/A,,Clear,80,2013-03-08 14:35:00
8:55 AM,38.3,27.0,64,30.42,10.0,East,15.0,-,N/A,,Clear,80,2013-03-08 14:55:00
9:15 AM,39.4,26.8,61,30.42,10.0,East,10.4,17.3,N/A,,Clear,80,2013-03-08 15:15:00
9:35 AM,40.8,27.7,60,30.41,10.0,East,11.5,-,N/A,,Clear,80,2013-03-08 15:35:00
9:55 AM,41.4,27.3,57,30.41,10.0,East,11.5,-,N/A,,Clear,80,2013-03-08 15:55:00
10:15 AM,42.4,27.7,56,30.41,10.0,East,9.2,-,N/A,,Clear,90,2013-03-08 16:15:00
10:35 AM,43.7,28.0,54,30.43,10.0,NNE,6.9,-,N/A,,Clear,20,2013-03-08 16:35:00
10:55 AM,43.9,27.9,53,30.43,10.0,NNE,5.8,-,N/A,,Clear,30,2013-03-08 16:55:00
11:15 AM,44.8,27.9,52,30.43,10.0,ENE,6.9,-,N/A,,Clear,70,2013-03-08 17:15:00
11:35 AM,45.5,27.5,49,30.42,10.0,ENE,6.9,-,N/A,,Clear,60,2013-03-08 17:35:00
11:55 AM,46.4,27.0,47,30.42,10.0,ENE,3.5,-,N/A,,Clear,70,2013-03-08 17:55:00
12:15 PM,46.9,27.9,48,30.40,10.0,ENE,5.8,-,N/A,,Clear,60,2013-03-08 18:15:00
12:35 PM,47.7,28.4,47,30.40,10.0,NNE,6.9,-,N/A,,Clear,20,2013-03-08 18:35:00
12:55 PM,48.4,28.2,46,30.37,10.0,ENE,5.8,-,N/A,,Clear,60,2013-03-08 18:55:00
1:15 PM,48.9,27.7,44,30.36,10.0,ENE,8.1,-,N/A,,Clear,70,2013-03-08 19:15:00
1:35 PM,49.8,27.9,43,30.35,10.0,NE,6.9,-,N/A,,Clear,50,2013-03-08 19:35:00
1:55 PM,50.5,28.2,42,30.34,10.0,East,12.7,16.1,N/A,,Clear,80,2013-03-08 19:55:00
2:15 PM,50.7,27.3,40,30.34,10.0,ENE,8.1,-,N/A,,Clear,70,2013-03-08 20:15:00
2:35 PM,51.1,27.5,40,30.34,10.0,ENE,6.9,-,N/A,,Clear,60,2013-03-08 20:35:00
2:55 PM,51.4,27.7,40,30.34,10.0,NE,6.9,-,N/A,,Clear,40,2013-03-08 20:55:00
3:15 PM,51.4,26.2,38,30.33,10.0,ENE,9.2,-,N/A,,Clear,60,2013-03-08 21:15:00
3:35 PM,51.4,27.1,39,30.33,10.0,NE,4.6,-,N/A,,Clear,40,2013-03-08 21:35:00
3:55 PM,51.3,27.7,40,30.31,10.0,NE,5.8,-,N/A,,Clear,40,2013-03-08 21:55:00
4:15 PM,51.1,27.3,40,30.31,10.0,ENE,6.9,-,N/A,,Clear,60,2013-03-08 22:15:00
4:35 PM,50.5,27.3,41,30.33,10.0,NE,4.6,-,N/A,,Clear,40,2013-03-08 22:35:00
4:55 PM,49.8,27.3,42,30.32,10.0,NE,4.6,-,N/A,,Clear,50,2013-03-08 22:55:00
5:15 PM,48.6,27.5,44,30.33,10.0,Calm,Calm,-,N/A,,Clear,0,2013-03-08 23:15:00
5:35 PM,47.1,27.9,47,30.33,10.0,NNE,3.5,-,N/A,,Clear,20,2013-03-08 23:35:00
5:55 PM,45.5,28.4,51,30.32,10.0,NE,4.6,-,N/A,,Clear,40,2013-03-08 23:55:00
6:35 PM,43.3,28.6,56,30.33,10.0,NNE,3.5,-,N/A,,Clear,20,2013-03-09 00:35:00
6:55 PM,42.4,28.6,58,30.33,10.0,NNE,3.5,-,N/A,,Clear,20,2013-03-09 00:55:00
7:15 PM,42.1,28.4,58,30.34,10.0,NNE,4.6,-,N/A,,Clear,30,2013-03-09 01:15:00
7:35 PM,42.3,28.4,58,30.34,10.0,NE,4.6,-,N/A,,Clear,40,2013-03-09 01:35:00
7:55 PM,41.4,28.8,61,30.34,10.0,NE,5.8,-,N/A,,Clear,50,2013-03-09 01:55:00
8:15 PM,40.5,28.9,64,30.33,10.0,NE,5.8,-,N/A,,Clear,40,2013-03-09 02:15:00
8:35 PM,39.9,28.9,65,30.33,10.0,NE,5.8,-,N/A,,Clear,40,2013-03-09 02:35:00
8:55 PM,39.2,29.1,67,30.32,10.0,NE,3.5,-,N/A,,Clear,50,2013-03-09 02:55:00
9:15 PM,38.1,29.1,70,30.32,10.0,NE,3.5,-,N/A,,Clear,50,2013-03-09 03:15:00
9:55 PM,37.4,29.3,73,30.32,10.0,ENE,3.5,-,N/A,,Clear,60,2013-03-09 03:55:00
10:15 PM,37.4,29.7,74,30.32,10.0,ENE,3.5,-,N/A,,Clear,60,2013-03-09 04:15:00
10:35 PM,37.6,29.8,74,30.31,10.0,ENE,5.8,-,N/A,,Clear,60,2013-03-09 04:35:00
10:55 PM,37.6,29.8,74,30.30,10.0,ENE,8.1,-,N/A,,Clear,70,2013-03-09 04:55:00
11:15 PM,37.6,29.8,74,30.29,10.0,ENE,8.1,-,N/A,,Clear,70,2013-03-09 05:15:00
11:35 PM,37.4,29.8,74,30.29,10.0,East,5.8,-,N/A,,Clear,80,2013-03-09 05:35:00
11:55 PM,36.9,29.3,74,30.29,10.0,ENE,5.8,-,N/A,,Clear,70,2013-03-09 05:55:00